02.05.2024;03:00;7
02.05.2024;02:00;2
02.05.2024;01:00;3
02.05.2024;00:00;3
01.05.2024;23:00;3
01.05.2024;22:00;2
01.05.2024;21:00;3
01.05.2024;20:00;1
01.05.2024;19:00;1
01.05.2024;18:00;2
01.05.2024;17:00;2
01.05.2024;16:00;1
01.05.2024;15:00;1
01.05.2024;14:00;2
01.05.2024;13:00;1
01.05.2024;12:00;1
01.05.2024;11:00;1
01.05.2024;10:00;2
01.05.2024;09:00;5
01.05.2024;08:00;10
01.05.2024;07:00;11
01.05.2024;06:00;10
01.05.2024;05:00;11
01.05.2024;04:00;7
01.05.2024;03:00;5
01.05.2024;02:00;6
01.05.2024;01:00;8
01.05.2024;00:00;5
30.04.2024;23:00;4
30.04.2024;22:00;4
30.04.2024;21:00;2
30.04.2024;20:00;2
30.04.2024;19:00;2
30.04.2024;18:00;2
30.04.2024;17:00;1
30.04.2024;16:00;1
30.04.2024;15:00;3
30.04.2024;14:00;1
30.04.2024;13:00;1
30.04.2024;12:00;1
30.04.2024;11:00;2
30.04.2024;10:00;2
30.04.2024;09:00;8
30.04.2024;08:00;11
30.04.2024;07:00;8
30.04.2024;06:00;5
30.04.2024;05:00;6
30.04.2024;04:00;5
